Weather in Kamyshi

Russia / Kurgan Oblast     55°01′33″N   64°54′42″E
temp.,
°C
wind,
m/s
gust,
m/s
humid.,
%
clouds,
%
prec.,
mm/h
press.,
hPa
HPBL,
m
13 june, sun
sun1323:00+15se33598 0.0 102430
02:00+13s226169 0.0 102411
05:00+13sse11657 0.0 102410
08:00+19s22508 0.0 1025302
11:00+23s3438100 0.0 10251748
14:00+25s3433100 0.0 10242177
17:00+26s3432100 0.0 10232274
20:00+22sse225083 0.0 102311
14 june, mon
mon1423:00+17sse33519 0.0 102418
02:00+15s22565 0.0 102414
05:00+15s34645 0.0 102450
08:00+21sw355498 0.0 1025296
11:00+26sw444091 0.0 1024930
14:00+28sw442991 0.0 10232397
17:00+28wsw452998 0.0 10222419
20:00+24sw124981 0.0 102111
15 june, tue
tue1523:00+19sw22565 0.0 102111
02:00+18ssw33576 0.0 102029
05:00+17sw345911 0.0 102146
08:00+22sw4651100 0.0 1020285
11:00+27sw5639100 0.0 1019917
14:00+29wsw5631100 0.0 10182777
17:00+29wsw5732100 0.0 10162768
20:00+24wsw225392 0.0 101611
16 june, wed
wed1623:00+21sw3355100 0.0 101530
02:00+20sw3452100 0.0 101567
05:00+19wsw3462100 0.0 101558
08:00+24nw355791 0.0 1015332
11:00+27nnw3445100 0.0 1015948
14:00+28nw333999 0.0 10141553
17:00+28ne42425 0.0 10131155
20:00+24ese37640 0.1 1012148
17 june, thu
thu1723:00+19se227920 0.1 101327
02:00+17ssw11790 0.3 101116
05:00+18s457590 0.6 101065
08:00+23ssw465463 0.0 1008259
11:00+29ssw573744 0.0 1006841
14:00+33ssw8132716 0.0 10023391
17:00+32wsw7113616 0.0 10002455
20:00+25w131754100 0.1 9991080